Location: Unspecified
(0.0000°N, 0.0000°E)
Time: 19:00:28
(UTC+00:00)

Courier 1B Rocket - Pass Details

Date: 27 November 2019
Orbit: 920 x 1202 km, 28.2° (Epoch: 08 December)

Event Time Altitude Azimuth Distance (km) Brightness Sun altitude
Rises 15:48:36 0° 333° (NNW) 3,777 8.1 27.6°
Reaches altitude 10° 15:55:29 10° 20° (NNE) 2,932 7.2 26.0°
Maximum altitude 15:55:37 10° 21° (NNE) 2,933 7.2 26.0°
Drops below altitude 10° 15:55:45 10° 22° (NNE) 2,935 7.2 25.9°
Sets 16:02:56 0° 67° (ENE) 3,995 7.6 24.3°
